TimeEST,TemperatureF,Dew PointF,Humidity,Sea Level PressureIn,VisibilityMPH,Wind Direction,Wind SpeedMPH,Gust SpeedMPH,PrecipitationIn,Events,Conditions,WindDirDegrees,DateUTC
12:53 AM,59.0,54.0,83,29.99,10.0,WNW,5.8,-,0.00,Rain,Light Rain,300,2014-01-16 05:53:00
1:53 AM,57.9,53.1,84,30.02,10.0,NNW,15.0,-,0.01,,Overcast,340,2014-01-16 06:53:00
2:53 AM,57.0,51.1,81,30.03,10.0,NNW,15.0,-,N/A,,Mostly Cloudy,330,2014-01-16 07:53:00
3:20 AM,57.2,50.0,77,30.03,10.0,NNW,16.1,20.7,N/A,,Overcast,340,2014-01-16 08:20:00
3:53 AM,55.9,48.9,77,30.04,10.0,NNW,12.7,21.9,N/A,,Overcast,340,2014-01-16 08:53:00
4:53 AM,54.0,45.0,72,30.05,10.0,NNW,16.1,28.8,N/A,,Overcast,340,2014-01-16 09:53:00
5:53 AM,51.1,43.0,74,30.06,10.0,North,13.8,-,N/A,,Clear,350,2014-01-16 10:53:00
6:53 AM,50.0,39.0,66,30.08,10.0,North,15.0,-,N/A,,Clear,360,2014-01-16 11:53:00
7:53 AM,48.9,34.0,56,30.10,10.0,North,11.5,18.4,N/A,,Clear,10,2014-01-16 12:53:00
8:53 AM,51.1,30.9,46,30.14,10.0,North,13.8,24.2,N/A,,Clear,10,2014-01-16 13:53:00
10:53 AM,55.0,28.0,35,30.17,10.0,North,13.8,21.9,N/A,,Unknown,350,2014-01-16 15:53:00
11:53 AM,57.0,30.0,36,30.15,10.0,North,12.7,-,N/A,,Clear,350,2014-01-16 16:53:00
12:53 PM,57.9,30.0,35,30.14,10.0,WNW,18.4,23.0,N/A,,Clear,300,2014-01-16 17:53:00
1:53 PM,57.9,33.1,39,30.12,10.0,NW,10.4,21.9,N/A,,Clear,310,2014-01-16 18:53:00
2:53 PM,60.1,34.0,38,30.11,10.0,NW,16.1,-,N/A,,Clear,310,2014-01-16 19:53:00
3:53 PM,57.9,34.0,41,30.12,10.0,NW,11.5,24.2,N/A,,Clear,320,2014-01-16 20:53:00
4:53 PM,55.9,34.0,44,30.13,10.0,WNW,16.1,21.9,N/A,,Clear,290,2014-01-16 21:53:00
5:53 PM,53.1,34.0,48,30.14,10.0,NW,10.4,-,N/A,,Clear,310,2014-01-16 22:53:00
6:53 PM,51.1,35.1,54,30.14,10.0,NW,10.4,-,N/A,,Clear,320,2014-01-16 23:53:00
7:53 PM,50.0,36.0,59,30.15,10.0,NNW,9.2,-,N/A,,Clear,340,2014-01-17 00:53:00
8:53 PM,48.9,35.1,59,30.17,10.0,NNW,9.2,-,N/A,,Clear,340,2014-01-17 01:53:00
9:53 PM,48.0,34.0,58,30.17,10.0,North,6.9,-,N/A,,Clear,360,2014-01-17 02:53:00
10:53 PM,46.9,33.1,59,30.18,10.0,NNE,5.8,-,N/A,,Clear,20,2014-01-17 03:53:00
11:53 PM,46.0,34.0,63,30.18,10.0,North,5.8,-,N/A,,Clear,10,2014-01-17 04:53:00